Location: Saluda
(35.2377°N, 82.3468°W)
Time: 04:08:54
(UTC+00:00)

Vanguard 2 - Pass Details

Date: 06 October 2022
Orbit: 553 x 2933 km, 32.9° (Epoch: 04 December)

Event Time Altitude Azimuth Distance (km) Brightness Sun altitude
Rises 19:48:07 0° 270° (W) 4,870 12.2 36.1°
Reaches altitude 10° 19:50:51 10° 269° (W) 4,149 12.1 35.7°
Maximum altitude 20:03:00 81° 184° (S) 2,494 10.8 33.8°
Drops below altitude 10° 20:20:40 10° 101° (E) 5,753 11.7 30.9°
Sets 20:25:13 0° 100° (E) 6,774 12.0 30.1°
